Stations météo

réclame
Mon MeteoGroup
Villanueva De Cordoba, Espagne (8346): Température de l'air & dewpoint: 09.08.2018 04:00:00 - 15.08.2018 04:00:00 (CEST)Villanueva De Cordoba, Espagne (8346): Vitesse du vent & gusts: 09.08.2018 04:00:00 - 15.08.2018 04:00:00 (CEST)Villanueva De Cordoba, Espagne (8346): Direction du vent: 09.08.2018 04:00:00 - 15.08.2018 04:00:00 (CEST)Villanueva De Cordoba, Espagne (8346): reduced air pressure: 09.08.2018 04:00:00 - 15.08.2018 04:00:00 (CEST)Villanueva De Cordoba, Espagne (8346): visibility: 09.08.2018 04:00:00 - 15.08.2018 04:00:00 (CEST)Villanueva De Cordoba, Espagne (8346): Ensoleillement: 09.08.2018 04:00:00 - 15.08.2018 04:00:00 (CEST)Villanueva De Cordoba, Espagne (8346): Quantités de précipitations: 09.08.2018 04:00:00 - 15.08.2018 04:00:00 (CEST)
Date & Time tt [°C] td [°C] ff [km/h] ff [knt] fx [km/h] fx [knt] dd ppp [hPa] vv [km] sd [min] rr [mm]
15.08.2018 04:00:00 21,0 8,0 8 5 13 7 SSE 1016,0 20 0 0,0
15.08.2018 03:00:00 21,7 6,7 6 3 14 8 S 1016,1 20 0 0,0
15.08.2018 02:00:00 23,2 6,1 7 4 13 7 S 1015,9 20 0 -
15.08.2018 01:00:00 24,7 6,4 9 5 15 8 W 1015,1 20 0 0,0
15.08.2018 00:00:00 25,6 5,8 9 5 16 8 WSW 1015,0 20 0 0,0
14.08.2018 23:00:00 26,9 5,8 10 5 22 12 SW 1014,5 20 0 0,0
14.08.2018 22:00:00 28,3 5,1 13 7 25 13 SW 1013,5 20 4 0,0
14.08.2018 21:00:00 31,1 3,9 13 7 26 14 SW 1012,3 20 60 0,0
14.08.2018 20:00:00 33,6 2,5 10 5 28 15 SSW 1011,3 20 60 -
14.08.2018 19:00:00 34,4 3,0 15 8 27 14 SW 1011,3 20 60 0,0
14.08.2018 18:00:00 33,9 4,5 6 4 24 13 NNW 1011,7 20 60 0,0
14.08.2018 17:00:00 34,7 2,3 9 5 24 13 W 1011,8 20 60 0,0
14.08.2018 16:00:00 34,1 1,7 5 3 23 13 SW 1012,4 20 60 0,0
14.08.2018 15:00:00 32,9 2,9 10 5 29 16 SW 1013,1 20 60 0,0
14.08.2018 14:00:00 32,0 3,0 7 4 22 12 SW 1013,7 20 60 -
14.08.2018 13:00:00 31,1 3,9 9 5 25 13 WSW 1014,1 20 60 0,0
14.08.2018 12:00:00 30,5 4,3 6 4 16 9 SSW 1014,5 20 60 0,0
14.08.2018 11:00:00 28,6 6,7 3 2 8 4 S 1014,7 20 60 0,0
14.08.2018 10:00:00 24,2 5,9 5 3 12 7 NNE 1015,6 20 60 0,0
14.08.2018 09:00:00 20,8 6,4 6 4 11 6 NW 1016,3 20 60 0,0
14.08.2018 08:00:00 18,7 5,5 6 4 15 8 NNW 1016,5 20 4 -
14.08.2018 07:00:00 18,9 5,6 8 4 14 8 NW 1016,0 20 0 0,0
14.08.2018 06:00:00 19,4 4,6 8 5 18 10 NW 1015,3 20 0 0,0
14.08.2018 05:00:00 20,2 4,3 10 5 17 9 NW 1015,2 20 0 0,0
14.08.2018 04:00:00 20,8 3,4 8 5 17 9 NNW 1015,4 20 0 0,0
14.08.2018 03:00:00 21,7 3,4 10 5 17 9 NW 1015,2 20 0 0,0
14.08.2018 02:00:00 22,6 2,7 8 5 15 8 NW 1014,8 20 0 -
14.08.2018 01:00:00 23,4 1,7 6 4 11 6 WNW 1014,5 20 0 0,0
14.08.2018 00:00:00 23,5 0,0 5 3 6 3 W 1014,3 20 0 0,0
13.08.2018 23:00:00 24,8 -2,0 5 3 11 6 NNW 1013,4 20 0 0,0
13.08.2018 22:00:00 26,4 0,9 6 4 18 10 NW 1012,1 20 12 0,0
13.08.2018 21:00:00 29,6 4,3 10 5 30 16 NW 1010,7 20 60 0,0
13.08.2018 20:00:00 31,0 5,5 16 8 31 17 WNW 1010,2 20 60 -
13.08.2018 19:00:00 31,8 4,5 13 7 35 19 WNW 1010,1 20 60 0,0
13.08.2018 18:00:00 32,5 5,1 16 8 36 20 W 1010,0 20 60 0,0
13.08.2018 17:00:00 32,8 5,3 18 10 37 20 W 1010,4 20 60 0,0
13.08.2018 16:00:00 33,2 4,8 17 9 35 19 WSW 1010,7 20 60 0,0
13.08.2018 15:00:00 32,6 2,7 13 7 34 19 W 1011,2 20 60 0,0
13.08.2018 14:00:00 32,2 4,8 13 7 28 15 WSW 1011,7 20 60 -
13.08.2018 13:00:00 30,7 3,6 12 7 27 15 W 1012,7 20 60 0,0
13.08.2018 12:00:00 29,0 4,5 13 7 29 16 W 1013,3 16 60 0,0
13.08.2018 11:00:00 27,7 7,0 6 3 15 8 SSW 1013,6 20 60 0,0
13.08.2018 10:00:00 25,2 8,7 2 1 9 5 WNW 1014,2 20 60 0,0
13.08.2018 09:00:00 21,0 9,6 4 2 11 6 N 1014,9 20 22 0,0
13.08.2018 08:00:00 18,7 7,7 5 3 10 5 S 1015,2 20 0 -
13.08.2018 07:00:00 19,6 8,3 6 3 9 5 SW 1014,4 20 0 0,0
13.08.2018 06:00:00 20,5 7,8 8 4 13 7 WNW 1014,1 20 0 0,0
13.08.2018 05:00:00 21,2 7,7 8 4 14 8 WNW 1014,1 20 0 0,0
13.08.2018 04:00:00 22,2 7,6 8 4 16 9 NNW 1014,2 20 0 0,0
13.08.2018 03:00:00 23,0 7,6 7 4 18 10 NNW 1014,4 20 0 0,0
13.08.2018 02:00:00 23,7 7,3 8 5 19 10 NW 1014,2 20 0 -
13.08.2018 01:00:00 25,4 7,0 11 6 21 11 W 1013,8 20 0 0,0
13.08.2018 00:00:00 26,1 9,0 10 5 26 14 WSW 1013,5 20 0 0,0
12.08.2018 23:00:00 27,5 12,7 14 7 27 15 SW 1012,7 20 0 0,0
12.08.2018 22:00:00 28,6 10,8 11 6 23 12 SW 1011,6 20 0 0,0
12.08.2018 21:00:00 30,8 9,0 12 7 28 15 SW 1010,3 20 37 0,0
12.08.2018 20:00:00 32,0 8,3 11 6 27 15 SW 1010,1 20 47 -
12.08.2018 19:00:00 33,7 8,4 13 7 28 15 W 1010,1 20 60 0,0
12.08.2018 18:00:00 33,8 8,4 13 7 32 17 W 1010,6 20 60 0,0
12.08.2018 17:00:00 33,9 10,5 17 9 37 20 SW 1011,0 20 58 0,0
12.08.2018 16:00:00 34,5 11,0 11 6 30 16 S 1011,4 20 60 0,0
12.08.2018 15:00:00 33,6 11,4 11 6 34 19 S 1012,5 20 59 0,0
12.08.2018 14:00:00 32,2 12,4 14 7 35 19 SSW 1013,3 20 49 -
12.08.2018 13:00:00 32,2 11,9 13 7 27 15 S 1013,7 20 60 0,0
12.08.2018 12:00:00 30,7 13,9 10 5 25 13 SSW 1014,4 20 60 0,0
12.08.2018 11:00:00 28,6 14,0 10 6 22 12 SSW 1014,9 20 60 0,0
12.08.2018 10:00:00 25,5 15,5 10 6 20 11 SSW 1015,7 20 60 0,0
12.08.2018 09:00:00 22,5 15,8 10 5 21 11 S 1016,7 20 48 0,0
12.08.2018 08:00:00 20,9 15,7 10 6 16 9 S 1016,7 20 0 -
12.08.2018 07:00:00 20,1 14,7 6 3 13 7 SE 1016,9 20 0 0,0
12.08.2018 06:00:00 21,3 15,2 5 3 13 7 SSE 1016,5 20 0 0,0
12.08.2018 05:00:00 21,3 14,4 5 3 19 10 SE 1016,4 20 0 0,0
12.08.2018 04:00:00 22,5 14,3 10 5 21 11 SSW 1016,1 20 0 0,0
12.08.2018 03:00:00 23,3 14,3 11 6 19 11 S 1016,1 20 0 0,0
12.08.2018 02:00:00 23,9 12,5 9 5 16 9 S 1016,5 20 0 -
12.08.2018 01:00:00 23,6 10,6 6 3 15 8 E 1017,5 20 0 0,0
12.08.2018 00:00:00 25,1 10,2 8 4 16 9 SSW 1017,0 20 0 0,0
11.08.2018 23:00:00 25,9 7,4 9 5 20 11 S 1016,5 20 0 0,0
11.08.2018 22:00:00 27,4 7,3 11 6 41 22 S 1015,5 20 0 0,0
11.08.2018 21:00:00 31,6 11,4 14 8 29 16 SSW 1013,9 20 44 0,0
11.08.2018 20:00:00 33,9 10,5 12 7 29 16 SSW 1013,0 15 60 -
11.08.2018 19:00:00 35,4 9,8 11 6 26 14 SSW 1012,4 20 60 0,0
11.08.2018 18:00:00 34,2 9,4 10 5 25 13 SW 1013,3 20 39 0,0
11.08.2018 17:00:00 34,3 10,2 10 5 24 13 SW 1013,7 20 28 0,0
11.08.2018 16:00:00 35,9 10,2 12 7 24 13 SW 1013,9 20 59 0,0
11.08.2018 15:00:00 35,0 10,0 13 7 25 13 S 1014,9 20 56 0,0
11.08.2018 14:00:00 34,1 10,0 9 5 23 13 SSE 1015,7 20 58 -
11.08.2018 13:00:00 32,6 10,0 6 3 24 13 S 1016,7 20 60 0,0
11.08.2018 12:00:00 31,1 9,3 5 3 15 8 ESE 1017,5 20 60 0,0
11.08.2018 11:00:00 29,2 8,8 3 2 12 7 SSW 1018,0 20 60 0,0
11.08.2018 10:00:00 27,5 8,4 4 2 10 5 SE 1018,6 20 60 0,0
11.08.2018 09:00:00 23,1 8,0 6 4 11 6 E 1019,7 20 47 0,0
11.08.2018 08:00:00 20,7 7,3 3 1 10 5 ESE 1019,9 14 0 -
11.08.2018 07:00:00 20,6 7,6 7 4 11 6 E 1019,8 20 0 0,0
11.08.2018 06:00:00 21,6 7,4 8 5 16 9 SW 1019,3 20 0 0,0
11.08.2018 05:00:00 21,7 9,3 9 5 25 14 SSW 1019,4 20 0 0,0
11.08.2018 04:00:00 22,2 10,0 12 6 21 12 S 1019,2 20 0 0,0
11.08.2018 03:00:00 23,0 9,4 9 5 21 12 S 1019,2 20 0 0,0
11.08.2018 02:00:00 23,7 8,9 10 5 20 11 S 1019,4 20 0 -
11.08.2018 01:00:00 24,3 8,3 9 5 17 9 S 1019,2 20 0 0,0
11.08.2018 00:00:00 25,1 5,8 8 4 15 8 SSW 1018,7 20 0 0,0
10.08.2018 23:00:00 25,4 -0,7 8 4 13 7 SSW 1018,4 20 0 0,0
10.08.2018 22:00:00 27,6 -2,2 6 3 15 8 WSW 1016,6 20 3 0,0
10.08.2018 21:00:00 31,0 -3,0 10 5 23 12 SW 1015,2 20 60 0,0
10.08.2018 20:00:00 32,9 -4,2 12 6 27 15 SW 1014,4 20 60 -
10.08.2018 19:00:00 34,0 -3,3 14 8 40 22 SW 1014,1 20 60 0,0
10.08.2018 18:00:00 34,5 -1,4 9 5 32 18 WSW 1014,1 20 60 0,0
10.08.2018 17:00:00 34,7 -1,4 18 10 35 19 SW 1014,1 20 60 0,0
10.08.2018 16:00:00 33,3 -1,2 16 8 31 17 WSW 1014,8 20 60 0,0
10.08.2018 15:00:00 33,7 0,4 13 7 29 16 S 1015,1 20 60 0,0
10.08.2018 14:00:00 32,4 1,5 8 4 29 15 SE 1015,4 20 60 -
10.08.2018 13:00:00 31,7 0,9 8 4 27 15 SSW 1015,8 20 60 0,0
10.08.2018 12:00:00 30,3 1,7 4 2 17 9 ENE 1016,2 20 60 0,0
10.08.2018 11:00:00 28,9 1,5 5 3 16 9 SE 1016,5 20 59 0,0
10.08.2018 10:00:00 25,5 0,2 4 2 11 6 NE 1017,4 20 60 0,0
10.08.2018 09:00:00 21,2 0,4 4 2 12 6 N 1018,5 13 60 0,0
10.08.2018 08:00:00 19,4 -0,7 6 4 12 6 N 1018,5 20 5 -
10.08.2018 07:00:00 19,8 -0,7 7 4 11 6 NNW 1018,0 20 0 0,0
10.08.2018 06:00:00 19,8 -0,7 5 3 13 7 NNW 1017,8 20 0 0,0
10.08.2018 05:00:00 20,1 -0,5 8 4 12 7 N 1017,7 20 0 0,0
10.08.2018 04:00:00 20,2 -0,5 8 4 14 8 N 1017,4 20 0 0,0
10.08.2018 03:00:00 20,7 -0,7 8 5 14 8 N 1017,7 20 0 0,0
10.08.2018 02:00:00 20,5 -0,7 8 5 13 7 N 1018,0 20 0 -
10.08.2018 01:00:00 21,0 -1,0 8 4 13 7 NNW 1017,6 20 0 0,0
10.08.2018 00:00:00 21,7 -0,3 8 5 14 8 NNW 1017,1 20 0 0,0
09.08.2018 23:00:00 22,3 0,2 7 4 16 9 NNW 1016,7 20 0 0,0
09.08.2018 22:00:00 23,6 1,3 8 4 19 10 NNW 1015,5 20 14 0,0
09.08.2018 21:00:00 26,4 0,9 10 5 27 14 NNW 1014,5 20 60 0,0
09.08.2018 20:00:00 27,7 1,9 13 7 30 16 NW 1013,7 20 60 -
09.08.2018 19:00:00 28,5 3,4 11 6 31 17 NNW 1013,3 20 60 0,0
09.08.2018 18:00:00 28,8 5,0 14 8 40 22 NW 1013,4 20 60 0,0
09.08.2018 17:00:00 28,6 4,1 10 5 32 17 NNW 1013,8 20 60 0,0
09.08.2018 16:00:00 28,3 5,1 6 4 29 16 N 1014,1 20 60 0,0
09.08.2018 15:00:00 27,1 6,5 14 7 29 16 WNW 1014,6 20 60 0,0
09.08.2018 14:00:00 26,6 7,6 9 5 25 13 W 1014,7 20 60 -
09.08.2018 13:00:00 25,8 7,8 8 4 22 12 W 1015,0 20 60 0,0
09.08.2018 12:00:00 23,3 10,4 8 4 18 10 NW 1015,5 20 60 0,0
09.08.2018 11:00:00 20,8 10,9 6 3 15 8 NW 1015,7 20 60 0,0
09.08.2018 10:00:00 17,9 11,4 8 4 21 11 NNW 1016,3 15 60 0,0
09.08.2018 09:00:00 15,6 11,3 11 6 22 12 NNW 1016,7 20 48 0,0
09.08.2018 08:00:00 14,7 10,8 8 5 21 11 NW 1016,3 20 0 -
09.08.2018 07:00:00 15,2 9,9 9 5 16 9 NW 1016,0 20 0 0,0
09.08.2018 06:00:00 16,1 9,3 7 4 16 9 NNW 1015,3 20 0 0,0
09.08.2018 05:00:00 16,9 8,4 9 5 19 11 WNW 1015,0 20 0 0,0
09.08.2018 04:00:00 18,0 6,2 10 6 22 12 NW 1014,6 20 0 0,0

tt = Température de l'air
td = dewpoint
ff = Vitesse du vent
fx = gusts
dd = Direction du vent
ppp = reduced air pressure
vv = visibility
sd = Ensoleillement
rr = Quantités de précipitations

stations d'obs. à proximité